When you browse on this site, cookies collect data to enhance your experience and personalize the content and advertising you see.
Visit our Privacy Policy to learn more. By continuing to use the site, you agree to this use of cookies and data.
  • In Austria
  • List of Countries
  • For 7 days
  • Water Temperature
  • Satellite Maps
  • Weather Map
  • News
  • Weather Widgets
  • user-avatar
    Login

    Hourly Weather Kaprun

    Today, 26 May, Sunday

    Time Temperature Precipitation Wind Pressure Humidity
    00:00 +4°C° 1 mm 1 mps 596 mmHg 96%
    01:00 +4°C° 1 mm 1 mps 596 mmHg 96%
    02:00 +4°C° 0.2 mm 1 mps 596 mmHg 96%
    03:00 +4°C° 0.2 mm 1 mps 596 mmHg 96%
    04:00 +2°C° 0.2 mm 0 mps 596 mmHg 95%
    05:00 +3°C° 0 mm 0 mps 596 mmHg 94%
    06:00 +4°C° 0 mm 0 mps 596 mmHg 92%
    07:00 +5°C° 0 mm 0 mps 597 mmHg 90%
    08:00 +6°C° 0.1 mm 0 mps 597 mmHg 84%
    09:00 +9°C° 0.1 mm 1 mps 598 mmHg 78%
    10:00 +10°C° 0.1 mm 1 mps 598 mmHg 71%
    11:00 +10°C° 0.2 mm 1 mps 598 mmHg 71%
    12:00 +11°C° 0.2 mm 1 mps 598 mmHg 71%
    13:00 +11°C° 0.2 mm 1 mps 598 mmHg 71%
    14:00 +11°C° 0.4 mm 1 mps 598 mmHg 74%
    15:00 +11°C° 0.4 mm 1 mps 598 mmHg 77%
    16:00 +10°C° 0.4 mm 1 mps 597 mmHg 80%
    17:00 +9°C° 0.9 mm 1 mps 597 mmHg 85%
    18:00 +8°C° 0.9 mm 1 mps 597 mmHg 90%
    19:00 +7°C° 0.9 mm 0 mps 596 mmHg 94%
    20:00 +6°C° 0.4 mm 0 mps 596 mmHg 95%
    21:00 +5°C° 0.4 mm 0 mps 596 mmHg 95%
    22:00 +5°C° 0.4 mm 0 mps 596 mmHg 96%
    23:00 +5°C° 0.1 mm 0 mps 595 mmHg 96%

    Tomorrow, 27 May, Monday

    Time Temperature Precipitation Wind Pressure Humidity
    00:00 +4°C° 0.1 mm 0 mps 595 mmHg 96%
    01:00 +4°C° 0.1 mm 0 mps 595 mmHg 96%
    02:00 +4°C° 0 mm 0 mps 595 mmHg 96%
    03:00 +4°C° 0 mm 0 mps 594 mmHg 96%
    04:00 +4°C° 0 mm 0 mps 594 mmHg 97%
    05:00 +5°C° 0.4 mm 0 mps 594 mmHg 96%
    06:00 +5°C° 0.4 mm 0 mps 595 mmHg 96%
    07:00 +6°C° 0.4 mm 0 mps 595 mmHg 95%
    08:00 +7°C° 0.5 mm 1 mps 595 mmHg 92%
    09:00 +8°C° 0.5 mm 1 mps 595 mmHg 90%
    10:00 +9°C° 0.5 mm 1 mps 595 mmHg 87%
    11:00 +9°C° 0.5 mm 1 mps 595 mmHg 88%
    12:00 +9°C° 0.5 mm 1 mps 595 mmHg 89%
    13:00 +9°C° 0.5 mm 1 mps 595 mmHg 90%
    14:00 +8°C° 0.6 mm 1 mps 594 mmHg 91%
    15:00 +8°C° 0.6 mm 1 mps 594 mmHg 93%
    16:00 +8°C° 0.6 mm 1 mps 594 mmHg 94%
    17:00 +8°C° 0.6 mm 1 mps 593 mmHg 95%
    18:00 +6°C° 0.6 mm 0 mps 593 mmHg 96%
    19:00 +6°C° 0.6 mm 0 mps 593 mmHg 97%
    20:00 +6°C° 1.4 mm 0 mps 592 mmHg 98%
    21:00 +5°C° 1.4 mm 0 mps 592 mmHg 98%
    22:00 +6°C° 1.4 mm 1 mps 592 mmHg 98%
    23:00 +6°C° 2.3 mm 1 mps 592 mmHg 98%

    Day after tomorrow, 28 May, Tuesday

    Time Temperature Precipitation Wind Pressure Humidity
    00:00 +5°C° 2.3 mm 0 mps 591 mmHg 98%
    01:00 +4°C° 2.3 mm 0 mps 591 mmHg 98%
    02:00 +5°C° 2.3 mm 1 mps 591 mmHg 98%
    03:00 +5°C° 2.3 mm 1 mps 590 mmHg 98%
    04:00 +5°C° 2.3 mm 1 mps 590 mmHg 98%
    05:00 +5°C° 1.6 mm 1 mps 590 mmHg 98%
    06:00 +5°C° 1.6 mm 1 mps 590 mmHg 97%
    07:00 +5°C° 1.6 mm 1 mps 590 mmHg 97%
    08:00 +5°C° 2.1 mm 1 mps 590 mmHg 97%
    09:00 +5°C° 2.1 mm 1 mps 590 mmHg 97%
    10:00 +4°C° 2.1 mm 2 mps 590 mmHg 97%
    11:00 +4°C° 1.4 mm 2 mps 590 mmHg 97%
    12:00 +4°C° 1.4 mm 2 mps 590 mmHg 97%
    13:00 +4°C° 1.4 mm 2 mps 590 mmHg 97%
    14:00 +4°C° 0.8 mm 2 mps 590 mmHg 97%
    15:00 +4°C° 0.8 mm 2 mps 590 mmHg 96%
    16:00 +3°C° 0.8 mm 3 mps 590 mmHg 96%
    17:00 +3°C° 0.8 mm 2 mps 590 mmHg 97%
    18:00 +3°C° 0.8 mm 2 mps 590 mmHg 98%
    19:00 +2°C° 0.8 mm 2 mps 590 mmHg 98%
    20:00 +2°C° 1.4 mm 2 mps 590 mmHg 98%
    21:00 +2°C° 1.4 mm 2 mps 591 mmHg 98%
    22:00 +1°C° 1.4 mm 2 mps 591 mmHg 98%
    23:00 +1°C° 2.2 mm 2 mps 591 mmHg 98%

    29 May, Wednesday

    Time Temperature Precipitation Wind Pressure Humidity
    00:00 +1°C° 2.2 mm 2 mps 591 mmHg 98%
    01:00 -1°C° 2.2 mm 3 mps 591 mmHg 98%
    02:00 -1°C° 1.9 mm 3 mps 591 mmHg 98%
    03:00 -1°C° 1.9 mm 3 mps 591 mmHg 98%
    04:00 -1°C° 1.9 mm 3 mps 591 mmHg 98%
    05:00 -2°C° 1.6 mm 3 mps 591 mmHg 98%
    06:00 -2°C° 1.6 mm 3 mps 591 mmHg 98%
    07:00 -2°C° 1.6 mm 3 mps 591 mmHg 98%
    08:00 -2°C° 1.6 mm 3 mps 592 mmHg 98%
    09:00 -1°C° 1.6 mm 3 mps 592 mmHg 98%
    10:00 -1°C° 1.6 mm 3 mps 593 mmHg 98%
    11:00 -1°C° 0.9 mm 3 mps 593 mmHg 97%
    12:00 -1°C° 0.9 mm 3 mps 593 mmHg 97%
    13:00 -1°C° 0.9 mm 3 mps 593 mmHg 97%
    14:00 0°C° 0.4 mm 3 mps 594 mmHg 96%
    15:00 0°C° 0.4 mm 3 mps 594 mmHg 95%
    16:00 0°C° 0.4 mm 3 mps 594 mmHg 95%
    17:00 0°C° 0.1 mm 3 mps 594 mmHg 95%
    18:00 -1°C° 0.1 mm 2 mps 594 mmHg 95%
    19:00 -1°C° 0.1 mm 2 mps 595 mmHg 95%
    20:00 -2°C° 0.1 mm 2 mps 595 mmHg 95%
    21:00 -3°C° 0.1 mm 2 mps 595 mmHg 95%
    22:00 -3°C° 0.1 mm 2 mps 596 mmHg 94%
    23:00 -4°C° 0 mm 2 mps 596 mmHg 94%

    30 May, Thursday

    Time Temperature Precipitation Wind Pressure Humidity
    00:00 -4°C° 0 mm 2 mps 596 mmHg 93%
    01:00 -5°C° 0 mm 2 mps 596 mmHg 93%
    02:00 -3°C° 0 mm 1 mps 596 mmHg 93%
    03:00 -3°C° 0 mm 1 mps 596 mmHg 92%
    04:00 -4°C° 0 mm 1 mps 596 mmHg 91%
    05:00 -2°C° 0 mm 1 mps 597 mmHg 91%
    06:00 0°C° 0 mm 1 mps 598 mmHg 90%
    07:00 +2°C° 0 mm 1 mps 599 mmHg 90%
    08:00 +2°C° 0 mm 2 mps 599 mmHg 88%
    09:00 +3°C° 0 mm 2 mps 600 mmHg 87%
    10:00 +4°C° 0 mm 2 mps 600 mmHg 85%
    11:00 +5°C° 0 mm 2 mps 601 mmHg 82%
    12:00 +6°C° 0 mm 1 mps 601 mmHg 80%
    13:00 +7°C° 0 mm 1 mps 601 mmHg 77%
    14:00 +7°C° 0 mm 1 mps 601 mmHg 77%
    15:00 +7°C° 0 mm 2 mps 601 mmHg 76%
    16:00 +7°C° 0 mm 2 mps 601 mmHg 75%
    17:00 +7°C° 0 mm 1 mps 601 mmHg 79%
    18:00 +6°C° 0 mm 1 mps 601 mmHg 82%
    19:00 +5°C° 0 mm 1 mps 600 mmHg 86%
    20:00 +3°C° 0 mm 1 mps 600 mmHg 87%
    21:00 +2°C° 0 mm 1 mps 600 mmHg 89%
    22:00 +1°C° 0 mm 1 mps 600 mmHg 90%
    23:00 +1°C° 0 mm 1 mps 600 mmHg 89%

    31 May, Friday

    Time Temperature Precipitation Wind Pressure Humidity
    00:00 +1°C° 0 mm 1 mps 600 mmHg 88%
    01:00 +1°C° 0 mm 1 mps 600 mmHg 87%
    02:00 +1°C° 0 mm 1 mps 600 mmHg 85%
    03:00 +1°C° 0 mm 1 mps 600 mmHg 83%
    04:00 +1°C° 0 mm 1 mps 600 mmHg 81%
    05:00 +3°C° 0 mm 1 mps 601 mmHg 81%
    06:00 +4°C° 0 mm 1 mps 602 mmHg 80%
    07:00 +6°C° 0 mm 1 mps 603 mmHg 79%
    08:00 +7°C° 0 mm 1 mps 603 mmHg 77%
    09:00 +7°C° 0 mm 2 mps 604 mmHg 75%
    10:00 +8°C° 0 mm 2 mps 604 mmHg 73%
    11:00 +7°C° 0.5 mm 2 mps 604 mmHg 80%
    12:00 +6°C° 0.5 mm 2 mps 603 mmHg 87%
    13:00 +5°C° 0.5 mm 2 mps 603 mmHg 94%
    14:00 +5°C° 0.3 mm 2 mps 603 mmHg 93%
    15:00 +5°C° 0.3 mm 2 mps 603 mmHg 92%
    16:00 +5°C° 0.3 mm 2 mps 603 mmHg 92%
    17:00 +6°C° 0.1 mm 1 mps 603 mmHg 93%
    18:00 +5°C° 0.1 mm 1 mps 603 mmHg 94%
    19:00 +5°C° 0.1 mm 1 mps 603 mmHg 95%
    20:00 +5°C° 0.1 mm 1 mps 603 mmHg 94%
    21:00 +4°C° 0.1 mm 1 mps 603 mmHg 93%
    22:00 +4°C° 0.1 mm 1 mps 603 mmHg 92%
    23:00 +4°C° 0 mm 1 mps 603 mmHg 92%
    Show more